Regional Weather Roundup
Issued by NWS

Home | Current Version | Previous Version | Text Only | Print | Product List | Glossary Off
Versions: 1 2 3 4 5 6 7 8 9 10 11 12 13 14 15 16 17 18 19 20 21 22 23 24 25 26 27 28 29 30 31 32 33 34 35 36 37 38 39 40 41 42 43 44 45 46 47 48 49 50

000
ASUS43 KIND 201759
RWRIN

WEATHER ROUNDUP FOR INDIANA
NATIONAL WEATHER SERVICE INDIANAPOLIS IN
100 PM EST SAT JAN 20 2018

NOTE: "FAIR" INDICATES FEW OR NO CLOUDS BELOW 12,000 FEET WITH NO
SIGNIFICANT WEATHER AND/OR OBSTRUCTIONS TO VISIBILITY.

* - STATION DOES NOT REPORT WEATHER SUCH AS PRECIPITATION OR FOG.

+ - STATION NOT QUALITY CONTROLLED BY THE NATIONAL WEATHER SERVICE.
    USE DATA WITH CAUTION...ESPECIALLY DEWPOINT AND RELATIVE
    HUMIDITY OBSERVATIONS.

INZ001>003-010>013-019-020-201900-
NORTHWEST INDIANA

CITY           SKY/WX    TMP DP  RH WIND       PRES   REMARKS
GARY /AIRPORT/ MOSUNNY   43  30  61 SW12      29.96S
KNOX *+        FAIR      37  32  81 SW8       29.97F WCI  31
MONTICELLO +   FAIR      38  30  72 SW10      30.00F WCI  31
6HR MIN TEMP:  30; 6HR MAX TEMP:  38;


$$

LMZ046-743>745-201900-
SOUTHERN LAKE MICHIGAN

STATION/POSITION TIME  TEMP    WIND        PRES    WAVE
                       AIR SEA DIR/SP/G            HT
                 (UTC) (F)     (DEG/KT/KT) (MB)    (FT)
BURNS HARBOR     1740   40     210/ 13/ 16 1014.9F
MICHIGAN CITY    1730   39     190/ 12/ 13   N/A

$$

INZ004-005-014>016-021>024-201900-
NORTH CENTRAL INDIANA

CITY           SKY/WX    TMP DP  RH WIND       PRES   REMARKS
ELKHART        SUNNY     39  28  65 SW8       29.96F WCI  34
GOSHEN         FAIR      36  29  75 SW14G22   29.97F WCI  27
6HR MIN TEMP:  30; 6HR MAX TEMP:  36;

PERU/GRISSOM   FAIR      39  33  81 SW12      29.99F WCI  32
6HR MIN TEMP:  31; 6HR MAX TEMP:  39;

SOUTH BEND     FAIR      37  29  72 SW13      29.97S WCI  29
6HR MIN TEMP:  30; 6HR MAX TEMP:  37;


$$

INZ006>009-017-018-025>027-201900-
NORTHEAST INDIANA

CITY           SKY/WX    TMP DP  RH WIND       PRES   REMARKS
FORT WAYNE     PTSUNNY   39  31  72 SW12      29.99F WCI  32
6HR MIN TEMP:  31; 6HR MAX TEMP:  39;

KENDALLVILLE + FAIR      38  29  70 SW10G17   29.96F WCI  31

$$

INZ028-029-035-036-043>045-051>053-201900-
WEST CENTRAL INDIANA

CITY           SKY/WX    TMP DP  RH WIND       PRES   REMARKS
GREENCASTLE +  CLOUDY    41  28  60 SW6       30.04F
LAFAYETTE      FAIR      40  32  73 SW8       30.01F WCI  34
6HR MIN TEMP:  30; 6HR MAX TEMP:  40;

TERRE HAUTE    FAIR      43  28  55 SW10      30.06F
6HR MIN TEMP:  28; 6HR MAX TEMP:  43;


$$

INZ030>032-037>040-046>048-054>057-064-065-201900-
CENTRAL INDIANA

CITY           SKY/WX    TMP DP  RH WIND       PRES   REMARKS
ANDERSON       SUNNY     41  27  56 SW12      30.03
COLUMBUS       PTSUNNY   41  27  56 SW10      30.08F
INDIANAPOLIS   PTSUNNY   44  31  60 SW15      30.04F
6HR MIN TEMP:  32; 6HR MAX TEMP:  44;

-EAGLE CREEK   FAIR      43  30  60 SW10      30.03F
6HR MIN TEMP:  33; 6HR MAX TEMP:  43;

MT COMFORT *+  FAIR      43  34  70 SW10      30.04F
SHELBYVILLE    FAIR      43  28  55 S7        30.05F
6HR MIN TEMP:  30; 6HR MAX TEMP:  43;


$$

INZ033-034-041-042-049-050-058-059-201900-
EAST CENTRAL INDIANA

CITY           SKY/WX    TMP DP  RH WIND       PRES   REMARKS
MUNCIE         FAIR      41  28  60 SW12      30.02F
6HR MIN TEMP:  33; 6HR MAX TEMP:  41;

RICHMOND +     FAIR      37  30  75 SW17      30.06F WCI  28

$$

INZ060-061-067>069-081>083-085>088-201900-
SOUTHWEST INDIANA

CITY           SKY/WX    TMP DP  RH WIND       PRES   REMARKS
EVANSVILLE     PTSUNNY   44  37  76 SW16      30.11F
6HR MIN TEMP:  31; 6HR MAX TEMP:  45;

HUNTINGBURG +  CLOUDY    45  29  53 S9        30.11F
6HR MIN TEMP:  32; 6HR MAX TEMP:  45;


$$

INZ062-063-066-070>080-084-089>092-201900-
SOUTH CENTRAL AND SOUTHEAST INDIANA

CITY           SKY/WX    TMP DP  RH WIND       PRES   REMARKS
BLOOMINGTON    FAIR      45  29  53 SW12      30.06F
6HR MIN TEMP:  34; 6HR MAX TEMP:  45;

FRENCH LICK *+ FAIR      45  21  39 SW8       30.10F
SEYMOUR +      PTSUNNY   46  28  49 SW8       30.09F

$$





USA.gov is the U.S. government's official web portal to all federal, state and local government web resources and services.